星链-2168 (STARLINK-2168 )

导读 | 星芒AI

STARLINK-2168 是 SpaceX 星链计划中的一颗低轨通信卫星,属于第6批星链卫星(Batch 6)。该卫星于2023年发射,运行在约550公里高度的近地轨道,旨在为全球用户提供高速互联网服务。它采用先进的相控阵天线和激光通信技术,具备高带宽和低延迟特性,支持偏远地区的网络接入。作为星链星座的一部分,STARLINK-2168 有助于提升卫星群的覆盖密度与通信稳定性。

基本信息
目录编号:
47751
目录名称:
STARLINK-2168
国际标识:
2021-017AF
轨道中心:
EARTH
卫星名称:
星链-2168
卫星全名:
星链-2168 (STARLINK-2168 )
卫星状态:
已陨落 最后检测时间 2024-08-04
发射日期:
2021-03-04 UTC
国别 :
美国 (US)
星等 :
--
轨道信息
数据来源 国际轨道数据
星历时间: 2024-08-04T07:23:35+0800
轨道信息已过期455天
半长轴: 6577.989km
偏心率: 0.0002904
轨道倾角: 53.035°
近地点辐角 252.887°
升交点赤经 243.348°
平近点角 207.414°
近地点: 197.943km
远地点: 201.765km
周期: 88.491分钟
每日圈数: 16.27283
详细信息
固有亮度:
5
最大亮度:
2.5
卫星平台:
Starlink V1.0
覆盖范围:
全球
运营商:
太空探索技术公司
运营商所在国:
美国
制造商(研发单位):
太空探索技术公司
制造商所在国:
美国
使用方式:
暂无
卫星简介
星链(Starlink)计划是由太空探索技术公司(SpaceX)提出的一个巨型低轨卫星互联网星座项目,计划在2019年至2024年间在太空搭建由约1.2万颗卫星组成的“星链”网络,其中1584颗将部署在地球上空550千米处的近地轨道,并从2020年开始工作。该卫星仍在工作。